{"data":{"norad_id":81497,"intl_designator":"","name":"UNKNOWN","alt_names":[],"object_type":"UNKNOWN","status":"UNKNOWN","operator":null,"country":null,"launch_date":null,"launch_site_code":null,"launch_vehicle":null,"mission":null,"orbit_class":"UNKNOWN","rcs_meters":null,"size_class":null,"mass_kg":null,"dimensions":null,"purposes":[],"wikipedia_slug":null,"has_3d_model":false,"image_url":null,"decayed_at":null,"tle_current":{"epoch":"2026-09-13T13:32:28.089600Z","epoch_age_seconds":613772,"freshness":"AGED","line1":"1 81497U          26256.56421400  .00002767  00000+0  24426-2 0  9993","line2":"2 81497 100.2933 182.8183 0029491  26.9741 148.1134 13.85965160254348","mean_motion":13.8596516,"eccentricity":0.0029491,"inclination_deg":100.2933,"raan_deg":182.8183,"arg_perigee_deg":26.9741,"mean_anomaly_deg":148.1134,"bstar":0.0024426,"rev_number":25434,"period_min":103.89871560696,"perigee_km":921.21480406676,"apogee_km":964.39518413637,"semimajor_km":7320.9419941016,"source":"CELESTRAK","updated_at":"2026-09-20T09:00:32.389772Z"}}}